| 
				
				
				
					
						 
					 | 
				
				
				
					
					
					Asteroid 2012 EQ10
					
					
					
					
						
					
					
						
							(Preview)
						
						
						
						
							
						
							
								Orbital elements:
2012 EQ10                                                Earth MOID = 0.0255 AU
Epoch 2012 Mar. 14.0 TT = JDT 2456000.5                 MPC
M  13.18296              (2000.0)            P               Q
n   0.59121684     Peri.  331.24625     -0.85618862     -0.51658590
a   1.4059553      Node   177.59365     +0.50538122     -0.84096594
e   0.2926237      Incl.   12.30374     +0.10738187     -0.16098227
P   1.67           H   25.9...                                    
							 
							
						 
						
					
				 | 
				
					
						Blobrana
					 | 
				
				
					
						0
					 | 
				
				
				
					
						
					 | 
				
				
					
						
					 | 
				
			
		
			
			
				
				
					
						 
					 | 
				
				
				
					
						
					 | 
				
				
				
					
					
					Asteroid 2012 EO10
					
					
					
					
						
					
					
						
							(Preview)
						
						
						
						
							
						
							
								Orbital elements:
2012 EO10                                                Earth MOID = 0.0698 AU
Epoch 2012 Mar. 14.0 TT = JDT 2456000.5                 MPC
M 349.37333              (2000.0)            P               Q
n   0.29227336     Peri.  250.23989     -0.84614553     +0.53241601
a   2.2487606      Node   321.91835     -0.47332582     -0.77133003
e   0.5267479      Incl.    2.22019     -0.24494980     -0.34868779
P   3.37           H   24.4...                                    
							 
							
						 
						
					
				 | 
				
					
						Blobrana
					 | 
				
				
					
						0
					 | 
				
				
				
					
						
					 | 
				
				
					
						
					 | 
				
			
		
			
			
				
				
					
						 
					 | 
				
				
				
					
						
					 | 
				
				
				
					
					
					Asteroid 2012 EJ8
					
					
					
					
						
					
					
						
							(Preview)
						
						
						
						
							
						
							
								Orbital elements:
2012 EJ8                                                 Earth MOID = 0.0553 AU
Epoch 2012 Mar. 14.0 TT = JDT 2456000.5                 MPC
M  29.58964              (2000.0)            P               Q
n   0.52795562     Peri.    5.89102     +0.53880214     -0.84104758
a   1.5161346      Node    51.51725     +0.77037656     +0.46871437
e   0.7071703      Incl.    3.53624     +0.34089911     +0.27008483
P   1.87           H   24.0           G   0.15... 
							 
							
						 
						
					
				 | 
				
					
						Blobrana
					 | 
				
				
					
						0
					 | 
				
				
				
					
						
					 | 
				
				
					
						
					 | 
				
			
		
			
			
				
				
					
						 
					 | 
				
				
				
					
						
					 | 
				
				
				
					
					
					Asteroid 2012 EL8
					
					
					
					
						
					
					
						
							(Preview)
						
						
						
						
							
						
							
								Orbital elements:
2012 EL8                                                 Earth MOID = 0.0187 AU
Epoch 2012 Mar. 14.0 TT = JDT 2456000.5                 MPC
M   7.13905              (2000.0)            P               Q
n   0.75892704     Peri.  165.27471     -0.96051933     -0.27820697
a   1.1903354      Node   358.56804     +0.24709833     -0.84999053
e   0.1512567      Incl.    4.28856     +0.12784767     -0.44734436
P   1.30           H   28.3           G   0....                      
							 
							
						 
						
					
				 | 
				
					
						Blobrana
					 | 
				
				
					
						0
					 | 
				
				
				
					
						
					 | 
				
				
					
						
					 | 
				
			
		
			
			
				
				
					
						 
					 | 
				
				
				
					
						
					 | 
				
				
				
					
					
					Asteroid 2012 EP5
					
					
					
					
						
					
					
						
							(Preview)
						
						
						
						
							
						
							
								Orbital elements:
2012 EP5                                                 Earth MOID = 0.2393 AU
Epoch 2012 Mar. 14.0 TT = JDT 2456000.5                 MPC
M  76.48878              (2000.0)            P               Q
n   0.59216307     Peri.   76.87977     +0.34256502     -0.93774671
a   1.4044572      Node   352.31929     +0.60624311     +0.26721336
e   0.2221157      Incl.   25.37429     +0.71771756     +0.22187413
P   1.66           H   21.7           G   0... 
							 
							
						 
						
					
				 | 
				
					
						Blobrana
					 | 
				
				
					
						1
					 | 
				
				
				
					
						
					 | 
				
				
					
						
					 | 
				
			
		
			
			
				
				
					
						 
					 | 
				
				
				
					
						
					 | 
				
				
				
					
					
					Asteroid 2012 EM8
					
					
					
					
						
					
					
						
							(Preview)
						
						
						
						
							
						
							
								Orbital elements:
2012 EM8                                                 Earth MOID = 0.0385 AU
Epoch 2012 Mar. 14.0 TT = JDT 2456000.5                 MPC
M 345.40476              (2000.0)            P               Q
n   0.61397041     Peri.   15.42587     -0.94576387     +0.32482736
a   1.3710009      Node   183.53772     -0.30482929     -0.89188666
e   0.2444311      Incl.    3.92926     -0.11229336     -0.31468296
P   1.61           H   24.7           G   0...                      
							 
							
						 
						
					
				 | 
				
					
						Blobrana
					 | 
				
				
					
						0
					 | 
				
				
				
					
						
					 | 
				
				
					
						
					 | 
				
			
		
			
			
				
				
					
						 
					 | 
				
				
				
					
						
					 | 
				
				
				
					
					
					Asteroid 2012 EK8
					
					
					
					
						
					
					
						
							(Preview)
						
						
						
						
							
						
							
								Orbital elements:
2012 EK8                                                 Earth MOID = 0.0282 AU
Epoch 2012 Mar. 14.0 TT = JDT 2456000.5                 MPC
M 350.94001              (2000.0)            P               Q
n   0.33672397     Peri.  202.48711     -0.91652334     +0.39996810
a   2.0462249      Node     1.10490     -0.33665194     -0.76701107
e   0.5083832      Incl.    9.67094     -0.21598714     -0.50171659
P   2.93           H   23.4           G   0....                      
							 
							
						 
						
					
				 | 
				
					
						Blobrana
					 | 
				
				
					
						0
					 | 
				
				
				
					
						
					 | 
				
				
					
						
					 | 
				
			
		
			
			
				
				
					
						 
					 | 
				
				
				
					
						
					 | 
				
				
				
					
					
					Asteroid 2012 EL5
					
					
					
					
						
					
					
						
							(Preview)
						
						
						
						
							
						
							
								Orbital elements:
2012 EL5                                                 Earth MOID = 0.0728 AU
Epoch 2012 Mar. 14.0 TT = JDT 2456000.5                 MPC
M  12.84579              (2000.0)            P               Q
n   0.25660065     Peri.  340.92579     -0.29272481     -0.95111318
a   2.4526235      Node   125.97766     +0.89235150     -0.30872533
e   0.6717851      Incl.    6.98898     +0.34354182     -0.00850817
P   3.84           H   19.8           G   0... 
							 
							
						 
						
					
				 | 
				
					
						Blobrana
					 | 
				
				
					
						0
					 | 
				
				
				
					
						
					 | 
				
				
					
						
					 | 
				
			
		
			
			
				
				
					
						 
					 | 
				
				
				
					
						
					 | 
				
				
				
					
					
					Asteroid 2012 EO5
					
					
					
					
						
					
					
						
							(Preview)
						
						
						
						
							
						
							
								Orbital elements:
2012 EO5                                                 Earth MOID = 0.0270 AU
Epoch 2012 Mar. 14.0 TT = JDT 2456000.5                 MPC
M  25.48475              (2000.0)            P               Q
n   0.47318636     Peri.  282.59403     -0.16145128     -0.98685830
a   1.6309773      Node   176.67546     +0.94410555     -0.15641130
e   0.5036209      Incl.    6.58159     +0.28739903     -0.04057341
P   2.08           H   23.3           G   0... 
							 
							
						 
						
					
				 | 
				
					
						Blobrana
					 | 
				
				
					
						0
					 | 
				
				
				
					
						
					 | 
				
				
					
						
					 | 
				
			
		
			
			
				
				
					
						 
					 | 
				
				
				
					
						
					 | 
				
				
				
					
					
					Asteroid 2012 EN5
					
					
					
					
						
					
					
						
							(Preview)
						
						
						
						
							
						
							
								Orbital elements:
2012 EN5                                                 Earth MOID = 0.0010 AU
Epoch 2012 Mar. 14.0 TT = JDT 2456000.5                 MPC
M 289.49638              (2000.0)            P               Q
n   0.96193209     Peri.  104.73020     +0.16243983     +0.98669607
a   1.0163418      Node   174.60513     -0.93031641     +0.15539583
e   0.3049309      Incl.    4.05377     -0.32882318     +0.04778083
P   1.02           H   27.2           G...                         
							 
							
						 
						
					
				 | 
				
					
						Blobrana
					 | 
				
				
					
						0
					 | 
				
				
				
					
						
					 | 
				
				
					
						
					 | 
				
			
		
			
			
				
				
					
						 
					 | 
				
				
				
					
						
					 | 
				
				
				
					
					
					Asteroid 2012 EF5
					
					
					
					
						
					
					
						
							(Preview)
						
						
						
						
							
						
							
